period_start,C,m1,H,J0,J1,J2,J3,J4,J5,JA,JB,JC,JD,JJ,JK,JN,#
2018-05-19 00:02:49,0.04,0.84,0.00,26.12,28.75,31.41,13.72,44.58,1019.06,2020.66,3076.80,2847.15,3260.53,600.12,591.39,24.80,0000 0000 0000 0000 000000
2018-05-19 00:07:50,0.01,0.84,0.00,26.17,28.78,31.44,13.71,44.59,1019.06,2020.26,3075.79,2846.40,3259.78,600.01,591.16,24.85,0000 0000 0000 0000 000000
2018-05-19 00:12:51,0.02,0.85,0.00,26.22,28.80,31.46,13.73,44.54,1019.06,2020.08,3074.92,2845.86,3259.02,600.11,591.22,24.90,0000 0000 0000 0000 000000
2018-05-19 00:17:52,0.04,0.85,0.00,26.23,28.83,31.47,13.70,44.57,1019.06,2020.01,3073.99,2845.06,3258.19,600.05,591.13,24.95,0000 0000 0000 0000 000000
2018-05-19 00:22:54,0.05,0.85,0.00,26.27,28.86,31.52,13.74,44.61,1019.06,2020.00,3073.04,2844.40,3257.48,599.96,590.90,25.00,0000 0000 0000 0000 000000
2018-05-19 00:27:55,0.05,0.85,0.00,26.36,28.88,31.54,13.67,44.58,1019.06,2020.00,3071.94,2843.71,3256.66,599.82,590.60,25.05,0000 0000 0000 0000 000000
2018-05-19 00:32:56,0.07,0.86,0.00,26.41,28.91,31.57,13.72,44.58,1019.06,2020.00,3070.74,2842.72,3255.54,600.06,590.78,25.10,0000 0000 0000 0000 000000
2018-05-19 00:37:58,0.05,0.86,0.00,26.46,28.94,31.59,13.65,44.50,1019.06,2020.00,3069.68,2841.86,3254.65,599.96,590.57,25.15,0000 0000 0000 0000 000000
2018-05-19 00:42:59,0.06,0.86,0.00,26.52,28.98,31.63,13.65,44.59,1019.06,2019.96,3068.49,2840.94,3253.62,599.89,590.29,25.20,0000 0000 0000 0000 000000
2018-05-19 00:48:00,0.04,0.86,0.00,26.62,29.01,31.66,13.69,44.63,1019.06,2019.84,3067.31,2840.07,3252.67,600.21,590.45,25.25,0000 0000 0000 0000 000000
2018-05-19 00:53:01,-0.01,0.86,0.00,26.69,29.05,31.69,13.68,44.66,1019.06,2019.32,3066.43,2839.36,3251.85,600.42,590.42,25.30,0000 0000 0000 0000 000000
2018-05-19 00:58:03,0.02,0.87,0.00,26.74,29.09,31.73,13.69,44.62,1019.06,2019.05,3065.71,2838.88,3251.05,600.22,590.27,25.35,0000 0000 0000 0000 000000
2018-05-19 01:03:04,0.04,0.87,0.00,26.78,29.13,31.78,13.67,44.57,1019.06,2019.00,3065.01,2838.07,3250.40,600.00,589.97,25.40,0000 0000 0000 0000 000000
2018-05-19 01:08:05,0.02,0.87,0.00,26.87,29.17,31.83,13.68,44.52,1019.06,2019.00,3064.35,2837.81,3249.97,600.02,589.75,25.45,0000 0000 0000 0000 000000
2018-05-19 01:13:06,0.03,0.87,0.00,26.96,29.21,31.87,13.67,44.53,1019.06,2018.97,3063.86,2837.06,3249.20,599.76,589.35,25.50,0000 0000 0000 0000 000000
2018-05-19 01:18:08,0.01,0.87,0.00,26.99,29.26,31.91,13.65,44.55,1019.06,2018.77,3063.05,2836.66,3248.72,600.16,589.58,25.55,0000 0000 0000 0000 000000
2018-05-19 01:23:09,-0.02,0.87,0.00,27.02,29.31,31.96,13.63,44.50,1019.06,2018.18,3062.33,2836.02,3248.01,599.86,589.37,25.60,0000 0000 0000 0000 000000
2018-05-19 01:28:10,0.04,0.87,0.00,27.08,29.35,32.01,13.64,44.48,1019.06,2018.01,3061.73,2835.40,3247.23,599.91,589.24,25.65,0000 0000 0000 0000 000000
2018-05-19 01:33:11,0.02,0.87,0.00,27.18,29.40,32.05,13.72,44.58,1019.06,2018.00,3061.02,2834.96,3246.71,600.00,589.18,25.70,0000 0000 0000 0000 000000
2018-05-19 01:38:13,0.04,0.88,0.00,27.26,29.45,32.10,13.64,44.58,1019.06,2017.97,3060.26,2834.19,3246.01,599.78,588.77,25.75,0000 0000 0000 0000 000000
2018-05-19 01:43:14,-0.01,0.88,0.00,27.32,29.50,32.15,13.64,44.53,1019.06,2017.57,3059.58,2833.70,3245.22,599.79,588.61,25.80,0000 0000 0000 0000 000000
2018-05-19 01:48:15,-0.01,0.88,0.00,27.38,29.55,32.21,13.57,44.46,1019.06,2017.10,3058.92,2833.05,3244.68,599.83,588.51,25.86,0000 0000 0000 0000 000000
2018-05-19 01:53:17,0.04,0.88,0.00,27.45,29.60,32.27,13.59,44.44,1019.06,2017.00,3058.06,2832.40,3243.90,599.82,588.41,25.91,0000 0000 0000 0000 000000
2018-05-19 01:58:18,0.05,0.88,0.00,27.51,29.65,32.31,13.59,44.48,1019.06,2016.99,3057.15,2831.70,3243.02,599.77,588.29,25.96,0000 0000 0000 0000 000000
2018-05-19 02:03:19,0.04,0.88,0.00,27.56,29.71,32.37,13.60,44.42,1019.06,2016.86,3056.18,2830.80,3242.10,599.71,588.14,26.01,0000 0000 0000 0000 000000
2018-05-19 02:08:21,-0.01,0.88,0.00,27.66,29.76,32.44,13.62,44.48,1019.06,2016.25,3055.30,2830.05,3241.15,600.04,588.17,26.06,0000 0000 0000 0000 000000
2018-05-19 02:13:22,0.03,0.88,0.00,27.74,29.81,32.49,13.63,44.57,1019.06,2016.02,3054.76,2829.65,3240.62,600.02,587.82,26.11,0000 0000 0000 0000 000000
2018-05-19 02:18:24,0.02,0.89,0.00,27.80,29.86,32.55,13.61,44.38,1019.06,2016.00,3054.04,2829.02,3240.01,600.03,587.88,26.16,0000 0000 0000 0000 000000
2018-05-19 02:23:25,0.04,0.89,0.00,27.85,29.92,32.60,13.62,44.38,1019.06,2015.96,3053.46,2828.59,3239.35,599.95,587.80,26.21,0000 0000 0000 0000 000000
2018-05-19 02:28:26,-0.03,0.89,0.00,27.93,29.97,32.67,13.58,44.52,1019.08,2015.69,3052.99,2828.02,3238.94,599.77,587.48,26.26,0000 0000 0000 0000 000000
2018-05-19 02:33:27,0.00,0.89,0.00,27.97,30.02,32.72,13.62,44.38,1019.09,2015.08,3052.28,2827.60,3238.16,599.83,587.56,26.31,0000 0000 0000 0000 000000
2018-05-19 02:38:28,0.02,0.89,0.00,28.04,30.08,32.79,13.61,44.28,1019.18,2014.99,3051.88,2827.01,3237.68,600.27,587.87,26.36,0000 0000 0000 0000 000000
2018-05-19 02:43:30,0.03,0.89,0.00,28.09,30.13,32.84,13.64,44.36,1019.22,2014.90,3051.09,2826.54,3237.03,600.02,587.45,26.41,0000 0000 0000 0000 000000
2018-05-19 02:48:31,-0.04,0.89,0.00,28.13,30.19,32.89,13.64,44.31,1019.24,2014.25,3050.70,2826.01,3236.56,599.91,587.28,26.46,0000 0000 0000 0000 000000
2018-05-19 02:53:32,0.02,0.89,0.00,28.19,30.24,32.96,13.63,44.38,1019.20,2014.02,3050.03,2825.64,3236.00,599.97,587.34,26.51,0000 0000 0000 0000 000000
2018-05-19 02:58:33,0.03,0.89,0.00,28.24,30.30,33.01,13.67,44.36,1019.23,2014.00,3049.57,2825.02,3235.33,600.16,587.37,26.56,0000 0000 0000 0000 000000
2018-05-19 03:03:34,0.02,0.89,0.00,28.30,30.35,33.07,13.63,44.30,1019.32,2013.92,3048.94,2824.57,3234.75,599.83,586.95,26.61,0000 0000 0000 0000 000000
2018-05-19 03:08:36,-0.03,0.89,0.00,28.36,30.40,33.12,13.57,44.33,1019.50,2013.28,3047.94,2823.83,3233.85,599.93,587.02,26.66,0000 0000 0000 0000 000000
2018-05-19 03:13:37,0.10,0.89,0.00,28.42,30.46,33.18,13.61,44.25,1019.51,2013.02,3046.30,2822.64,3232.61,600.16,587.17,26.71,0000 0000 0000 0000 000000
2018-05-19 03:18:38,0.04,0.90,0.00,28.46,30.51,33.24,13.61,44.25,1019.52,2012.99,3045.01,2821.82,3231.47,600.03,586.99,26.76,0000 0000 0000 0000 000000
2018-05-19 03:23:40,0.03,0.90,0.00,28.52,30.57,33.30,13.57,44.27,1019.54,2012.94,3044.33,2821.11,3231.00,599.90,586.81,26.81,0000 0000 0000 0000 000000
2018-05-19 03:28:41,-0.03,0.90,0.00,28.57,30.62,33.35,13.55,44.22,1019.54,2012.54,3043.99,2820.98,3230.54,599.94,586.59,26.86,0000 0000 0000 0000 000000
2018-05-19 03:33:42,0.01,0.90,0.00,28.63,30.68,33.41,13.51,44.22,1019.54,2012.06,3043.31,2820.19,3229.99,599.96,586.58,26.91,0000 0000 0000 0000 000000
2018-05-19 03:38:43,0.01,0.90,0.00,28.70,30.73,33.46,13.52,44.19,1019.54,2012.00,3042.98,2819.98,3229.29,599.83,586.25,26.96,0000 0000 0000 0000 000000
2018-05-19 03:43:44,0.04,0.90,0.00,28.74,30.78,33.52,13.52,44.13,1019.55,2011.99,3042.31,2819.36,3228.97,599.59,586.01,27.01,0000 0000 0000 0000 000000
2018-05-19 03:48:45,-0.03,0.90,0.00,28.81,30.84,33.56,13.52,44.19,1019.55,2011.64,3041.99,2819.00,3228.31,599.75,586.01,27.06,0000 0000 0000 0000 000000
2018-05-19 03:53:46,-0.00,0.90,0.00,28.85,30.89,33.62,13.61,44.34,1019.55,2011.09,3041.43,2818.67,3227.99,600.30,586.46,27.11,0000 0000 0000 0000 000000
2018-05-19 03:58:48,0.02,0.90,0.00,28.90,30.94,33.67,13.58,44.19,1019.55,2011.01,3041.01,2818.04,3227.43,600.27,586.28,27.16,0000 0000 0000 0000 000000
2018-05-19 04:03:49,0.02,0.90,0.00,28.95,31.00,33.72,13.53,44.28,1019.55,2010.98,3040.49,2817.85,3226.98,599.94,585.88,27.21,0000 0000 0000 0000 000000
2018-05-19 04:08:50,0.01,0.90,0.00,29.00,31.05,33.78,13.59,44.34,1019.56,2010.82,3040.01,2817.08,3226.29,599.93,585.90,27.26,0000 0000 0000 0000 000000
2018-05-19 04:13:52,-0.05,0.90,0.00,29.04,31.11,33.83,13.60,44.24,1019.55,2010.24,3039.86,2816.98,3225.97,600.00,585.83,27.31,0000 0000 0000 0000 000000
2018-05-19 04:18:53,0.04,0.90,0.00,29.11,31.16,33.87,13.57,44.19,1019.55,2010.01,3039.06,2816.27,3225.16,600.05,585.72,27.36,0000 0000 0000 0000 000000
2018-05-19 04:23:54,0.02,0.90,0.00,29.18,31.22,33.93,13.51,44.27,1019.55,2009.99,3038.55,2815.98,3224.78,599.69,585.32,27.41,0000 0000 0000 0000 000000
2018-05-19 04:28:56,0.00,0.90,0.00,29.20,31.27,33.99,13.54,44.18,1019.56,2009.72,3038.00,2815.38,3224.05,600.02,585.38,27.46,0000 0000 0000 0000 000000
2018-05-19 04:33:57,-0.03,0.90,0.00,29.30,31.33,34.04,13.52,44.24,1019.56,2009.07,3037.46,2815.01,3223.70,599.70,585.01,27.51,0000 0000 0000 0000 000000
2018-05-19 04:38:58,0.02,0.90,0.00,29.31,31.38,34.08,13.52,44.27,1019.56,2009.00,3037.02,2814.65,3223.02,599.62,584.91,27.56,0000 0000 0000 0000 000000
2018-05-19 04:43:59,0.03,0.90,0.00,29.39,31.43,34.13,13.59,44.17,1019.58,2008.98,3036.51,2814.02,3222.51,599.88,585.06,27.61,0000 0000 0000 0000 000000
2018-05-19 04:49:01,-0.01,0.90,0.00,29.44,31.49,34.19,13.59,44.17,1019.58,2008.74,3036.01,2813.81,3222.01,600.20,585.31,27.66,0000 0000 0000 0000 000000
2018-05-19 04:54:02,-0.02,0.90,0.00,29.44,31.54,34.24,13.47,44.23,1019.57,2008.17,3035.82,2813.11,3221.64,599.99,584.93,27.71,0000 0000 0000 0000 000000
2018-05-19 04:59:03,0.01,0.90,0.00,29.47,31.60,34.29,13.55,44.24,1019.58,2008.01,3035.07,2812.90,3221.02,599.89,584.88,27.76,0000 0000 0000 0000 000000
2018-05-19 05:04:05,0.04,0.91,0.00,29.53,31.65,34.34,13.54,44.18,1019.58,2008.00,3034.71,2812.18,3220.49,600.16,585.02,27.81,0000 0000 0000 0000 000000
2018-05-19 05:09:06,-0.01,0.91,0.00,29.60,31.70,34.39,13.53,44.27,1019.59,2007.80,3034.04,2811.99,3220.00,599.81,584.60,27.86,0000 0000 0000 0000 000000
2018-05-19 05:14:07,-0.01,0.90,0.00,29.61,31.75,34.44,13.63,44.20,1019.61,2007.18,3033.64,2811.32,3219.33,600.58,585.35,27.91,0000 0000 0000 0000 000000
2018-05-19 05:19:08,0.00,0.91,0.00,29.65,31.80,34.50,13.56,44.29,1019.69,2007.00,3033.02,2810.99,3218.98,599.81,584.52,27.96,0000 0000 0000 0000 000000
2018-05-19 05:24:10,0.04,0.91,0.00,29.66,31.86,34.54,13.54,44.33,1019.83,2006.97,3032.66,2810.37,3218.20,599.98,584.74,28.01,0000 0000 0000 0000 000000
2018-05-19 05:29:11,-0.02,0.91,0.00,29.69,31.91,34.58,13.56,44.33,1019.87,2006.71,3032.05,2810.00,3217.90,600.04,584.73,28.06,0000 0000 0000 0000 000000
2018-05-19 05:34:12,-0.00,0.91,0.00,29.77,31.95,34.63,13.52,44.27,1019.92,2006.14,3031.70,2809.61,3217.15,599.82,584.45,28.11,0000 0000 0000 0000 000000
2018-05-19 05:39:13,0.01,0.91,0.00,29.80,32.00,34.69,13.51,44.21,1020.00,2006.00,3031.04,2809.02,3216.88,599.70,584.17,28.16,0000 0000 0000 0000 000000
2018-05-19 05:44:15,0.03,0.91,0.00,29.81,32.05,34.73,13.52,44.23,1020.00,2005.99,3030.57,2808.80,3216.11,599.77,584.35,28.21,0000 0000 0000 0000 000000
2018-05-19 05:49:16,0.02,0.91,0.00,29.86,32.10,34.77,13.49,44.22,1020.01,2005.91,3030.02,2808.10,3215.80,599.69,584.19,28.26,0000 0000 0000 0000 000000
2018-05-19 05:54:17,-0.02,0.91,0.00,29.91,32.14,34.83,13.51,44.14,1020.02,2005.43,3029.46,2807.97,3215.05,600.10,584.54,28.31,0000 0000 0000 0000 000000
2018-05-19 05:59:19,0.01,0.91,0.00,29.92,32.19,34.87,13.54,44.23,1020.02,2005.07,3029.02,2807.34,3214.83,599.97,584.41,28.36,0000 0000 0000 0000 000000
2018-05-19 06:04:20,0.02,0.91,0.00,29.99,32.24,34.91,13.56,44.33,1020.02,2005.00,3028.51,2806.97,3214.07,600.05,584.31,28.41,0000 0000 0000 0000 000000
2018-05-19 06:09:21,0.03,0.91,0.00,30.03,32.28,34.96,13.51,44.32,1020.03,2004.99,3028.00,2806.42,3213.77,599.80,584.06,28.46,0000 0000 0000 0000 000000
2018-05-19 06:14:22,-0.00,0.91,0.00,30.06,32.33,35.00,13.47,44.13,1020.03,2004.83,3027.63,2806.01,3213.06,599.75,583.98,28.51,0000 0000 0000 0000 000000
2018-05-19 06:19:23,-0.03,0.91,0.00,30.08,32.38,35.04,13.53,44.27,1020.03,2004.28,3027.03,2805.86,3212.87,599.78,583.75,28.56,0000 0000 0000 0000 000000
2018-05-19 06:24:25,0.03,0.91,0.00,30.13,32.42,35.09,13.49,44.31,1019.98,2004.03,3026.76,2805.11,3212.11,599.60,583.59,28.61,0000 0000 0000 0000 000000
2018-05-19 06:29:26,0.01,0.91,0.00,30.19,32.47,35.14,13.59,44.07,1019.96,2004.00,3026.07,2804.98,3211.92,600.63,584.43,28.66,0000 0000 0000 0000 000000
2018-05-19 06:34:27,0.03,0.91,0.00,30.23,32.51,35.18,13.56,44.18,1019.82,2003.98,3025.93,2804.47,3211.16,599.44,583.31,28.72,0000 0000 0000 0000 000000
2018-05-19 06:39:29,-0.02,0.91,0.00,30.23,32.55,35.21,13.55,43.99,1019.78,2003.76,3025.23,2804.03,3210.94,600.00,583.74,28.77,0000 0000 0000 0000 000000
2018-05-19 06:44:30,-0.03,0.91,0.00,30.29,32.59,35.26,13.53,44.01,1019.94,2003.14,3024.99,2803.90,3210.29,600.08,583.64,28.82,0000 0000 0000 0000 000000
2018-05-19 06:49:31,0.03,0.91,0.00,30.32,32.63,35.30,13.42,44.16,1020.00,2003.03,3024.49,2803.20,3209.99,599.63,583.19,28.87,0000 0000 0000 0000 000000
2018-05-19 06:54:32,0.01,0.91,0.00,30.36,32.68,35.33,13.52,44.09,1020.03,2003.00,3024.00,2803.00,3209.49,599.91,583.52,28.92,0000 0000 0000 0000 000000
2018-05-19 06:59:33,0.02,0.92,0.00,30.39,32.72,35.38,13.47,44.14,1020.03,2002.98,3023.67,2802.60,3209.01,599.82,583.41,28.97,0000 0000 0000 0000 000000
2018-05-19 07:04:35,0.00,0.92,0.00,30.42,32.76,35.42,13.50,44.12,1020.03,2002.81,3023.06,2802.04,3208.73,600.03,583.49,29.02,0000 0000 0000 0000 000000
2018-05-19 07:09:36,-0.03,0.92,0.00,30.45,32.80,35.45,13.54,44.02,1020.03,2002.34,3022.90,2801.96,3208.05,600.22,583.58,29.07,0000 0000 0000 0000 000000
2018-05-19 07:14:37,0.02,0.91,0.00,30.47,32.84,35.49,13.53,44.15,1020.03,2002.02,3022.20,2801.40,3207.91,599.70,583.07,29.12,0000 0000 0000 0000 000000
2018-05-19 07:19:38,0.01,0.92,0.00,30.50,32.88,35.54,13.52,44.02,1020.03,2002.00,3021.98,2801.01,3207.23,599.87,583.11,29.17,0000 0000 0000 0000 000000
2018-05-19 07:24:40,0.01,0.92,0.00,30.51,32.92,35.58,13.54,44.11,1020.03,2001.97,3021.42,2800.87,3206.99,599.94,583.22,29.22,0000 0000 0000 0000 000000
2018-05-19 07:29:41,0.02,0.92,0.00,30.54,32.96,35.63,13.50,44.06,1020.03,2001.85,3021.01,2800.22,3206.49,599.94,583.17,29.27,0000 0000 0000 0000 000000
2018-05-19 07:34:42,-0.05,0.92,0.00,30.56,32.99,35.67,13.54,44.08,1020.03,2001.31,3020.74,2800.00,3206.01,600.05,583.02,29.32,0000 0000 0000 0000 000000
2018-05-19 07:39:43,0.00,0.92,0.00,30.57,33.03,35.69,13.54,44.01,1020.02,2001.03,3020.11,2799.95,3205.87,600.39,583.41,29.37,0000 0000 0000 0000 000000
2018-05-19 07:44:45,0.03,0.92,0.00,30.59,33.06,35.73,13.55,44.02,1020.01,2001.00,3020.00,2799.23,3205.12,600.40,583.47,29.42,0000 0000 0000 0000 000000
2018-05-19 07:49:46,0.01,0.92,0.00,30.61,33.10,35.77,13.55,44.08,1020.01,2001.00,3019.59,2799.01,3205.00,600.14,583.23,29.47,0000 0000 0000 0000 000000
2018-05-19 07:54:47,0.01,0.92,0.00,30.64,33.14,35.80,13.50,44.00,1020.03,2000.96,3019.02,2798.93,3204.58,599.88,582.85,29.52,0000 0000 0000 0000 000000
2018-05-19 07:59:49,0.01,0.92,0.00,30.65,33.17,35.84,13.44,44.07,1020.03,2000.80,3018.98,2798.42,3204.07,599.49,582.67,29.57,0000 0000 0000 0000 000000
2018-05-19 08:04:50,-0.03,0.92,0.00,30.66,33.20,35.87,13.46,44.06,1020.03,2000.29,3018.31,2798.01,3203.98,599.27,582.30,29.62,0000 0000 0000 0000 000000
2018-05-19 08:09:51,0.01,0.92,0.00,30.67,33.23,35.89,13.53,43.99,1020.03,2000.05,3018.00,2797.96,3203.39,600.16,583.02,29.67,0000 0000 0000 0000 000000
2018-05-19 08:14:52,0.03,0.92,0.00,30.72,33.26,35.92,13.48,44.00,1020.03,2000.00,3017.77,2797.44,3203.01,599.64,582.53,29.72,0000 0000 0000 0000 000000
2018-05-19 08:19:53,0.02,0.92,0.00,30.71,33.28,35.95,13.50,44.00,1020.04,2000.00,3017.06,2797.01,3202.85,599.40,582.35,29.77,0000 0000 0000 0000 000000
2018-05-19 08:24:54,0.01,0.92,0.00,30.67,33.31,35.98,13.48,43.98,1020.04,1999.99,3016.99,2796.98,3202.17,600.12,583.00,29.82,0000 0000 0000 0000 000000
2018-05-19 08:29:56,0.02,0.92,0.00,30.69,33.33,36.02,13.48,43.92,1020.04,1999.97,3016.62,2796.55,3202.00,600.15,583.05,29.87,0000 0000 0000 0000 000000
2018-05-19 08:34:57,0.00,0.92,0.00,30.70,33.36,36.02,13.50,43.98,1020.05,1999.82,3016.04,2796.04,3201.95,599.89,582.75,29.92,0000 0000 0000 0000 000000
2018-05-19 08:39:59,-0.02,0.92,0.00,30.70,33.38,36.06,13.53,44.02,1020.05,1999.51,3015.99,2796.00,3201.32,600.07,583.04,29.97,0000 0000 0000 0000 000000
2018-05-19 08:45:00,-0.01,0.92,0.00,30.70,33.40,36.09,13.62,43.96,1020.08,1999.22,3015.66,2795.97,3201.01,600.45,583.37,30.02,0000 0000 0000 0000 000000
2018-05-19 08:50:01,0.01,0.92,0.00,30.70,33.42,36.10,13.52,43.95,1020.08,1999.06,3015.06,2795.53,3200.99,600.18,583.07,30.07,0000 0000 0000 0000 000000
2018-05-19 08:55:02,0.01,0.92,0.00,30.71,33.44,36.12,13.50,44.02,1020.06,1999.03,3014.99,2795.06,3200.61,599.69,582.52,30.12,0000 0000 0000 0000 000000
2018-05-19 09:00:03,0.02,0.92,0.00,30.69,33.45,36.13,13.55,43.99,1020.05,1999.00,3014.47,2795.00,3200.03,599.73,582.56,30.17,0000 0000 0000 0000 000000
2018-05-19 09:05:04,0.00,0.92,0.00,30.67,33.47,36.15,13.50,43.93,1020.10,1999.00,3014.02,2794.93,3199.98,599.62,582.63,30.22,0000 0000 0000 0000 000000
2018-05-19 09:10:05,0.03,0.93,0.00,30.69,33.49,36.15,13.55,43.86,1020.30,1999.00,3013.93,2794.38,3199.69,600.08,583.05,30.27,0000 0000 0000 0000 000000
2018-05-19 09:15:06,0.03,0.93,0.00,30.69,33.50,36.19,13.50,43.98,1020.46,1998.99,3013.28,2794.02,3199.07,599.80,582.95,30.32,0000 0000 0000 0000 000000
2018-05-19 09:20:07,0.00,0.93,0.00,30.69,33.51,36.19,13.52,43.96,1020.49,1998.98,3013.01,2794.00,3199.00,599.98,583.15,30.37,0000 0000 0000 0000 000000
2018-05-19 09:25:09,-0.00,0.93,0.00,30.66,33.52,36.20,13.50,43.87,1020.50,1998.92,3012.91,2793.90,3198.95,599.98,583.24,30.42,0000 0000 0000 0000 000000
2018-05-19 09:30:10,0.03,0.93,0.00,30.69,33.54,36.22,13.57,43.92,1020.51,1998.78,3012.22,2793.37,3198.47,600.08,583.22,30.47,0000 0000 0000 0000 000000
2018-05-19 09:35:11,0.01,0.93,0.00,30.68,33.55,36.22,13.49,43.88,1020.46,1998.73,3012.01,2793.06,3198.09,599.83,582.95,30.52,0000 0000 0000 0000 000000
2018-05-19 09:40:12,-0.02,0.93,0.00,30.70,33.55,36.23,13.62,43.96,1020.43,1998.53,3012.00,2793.00,3198.00,600.15,583.26,30.57,0000 0000 0000 0000 000000
2018-05-19 09:45:13,-0.02,0.93,0.00,30.66,33.57,36.23,13.51,44.05,1020.23,1998.23,3011.73,2792.99,3197.98,599.93,583.07,30.62,0000 0000 0000 0000 000000
2018-05-19 09:50:14,0.01,0.93,0.00,30.63,33.57,36.24,13.60,43.98,1020.25,1998.19,3011.36,2792.97,3197.94,599.88,583.11,30.67,0000 0000 0000 0000 000000
2018-05-19 09:55:16,0.00,0.93,0.00,30.65,33.58,36.25,13.49,43.94,1020.34,1998.12,3011.06,2792.92,3197.75,599.91,583.05,30.72,0000 0000 0000 0000 000000
2018-05-19 10:00:17,0.01,0.93,0.00,30.65,33.59,36.24,13.51,43.97,1020.47,1998.13,3011.00,2792.79,3197.32,600.09,583.35,30.77,0000 0000 0000 0000 000000
2018-05-19 10:05:18,0.01,0.93,0.00,30.62,33.60,36.26,13.59,44.08,1020.52,1998.12,3011.00,2792.49,3197.06,600.07,583.48,30.82,0000 0000 0000 0000 000000
2018-05-19 10:10:19,0.00,0.93,0.00,30.61,33.60,36.26,13.61,43.92,1020.52,1998.06,3010.94,2792.07,3197.00,600.08,583.46,30.87,0000 0000 0000 0000 000000
2018-05-19 10:15:20,0.00,0.93,0.00,30.60,33.60,36.27,13.60,43.92,1020.52,1998.01,3010.71,2792.01,3197.00,600.21,583.61,30.92,0000 0000 0000 0000 000000
2018-05-19 10:20:21,0.01,0.93,0.00,30.59,33.60,36.27,13.45,43.92,1020.52,1998.00,3010.24,2792.00,3196.98,600.10,583.43,30.97,0000 0000 0000 0000 000000
2018-05-19 10:25:23,0.00,0.93,0.00,30.57,33.62,36.29,13.58,43.98,1020.52,1998.01,3010.01,2792.00,3196.85,600.15,583.51,31.02,0000 0000 0000 0000 000000
2018-05-19 10:30:24,0.01,0.93,0.00,30.54,33.62,36.28,13.59,43.94,1020.52,1998.02,3010.00,2791.98,3196.59,600.21,583.67,31.07,0000 0000 0000 0000 000000
2018-05-19 10:35:25,0.00,0.93,0.00,30.54,33.62,36.28,13.61,43.98,1020.52,1998.00,3009.95,2791.89,3196.13,600.37,583.80,31.12,0000 0000 0000 0000 000000
2018-05-19 10:40:26,0.00,0.93,0.00,30.54,33.62,36.28,13.54,44.06,1020.53,1998.00,3009.87,2791.67,3196.02,600.11,583.53,31.17,0000 0000 0000 0000 000000
2018-05-19 10:45:27,0.02,0.93,0.00,30.50,33.62,36.27,13.55,43.93,1020.53,1998.00,3009.32,2791.29,3196.00,600.38,583.92,31.22,0000 0000 0000 0000 000000
2018-05-19 10:50:29,0.00,0.93,0.00,30.49,33.62,36.28,13.57,43.97,1020.53,1998.00,3009.08,2791.17,3196.00,600.19,583.71,31.27,0000 0000 0000 0000 000000
2018-05-19 10:55:30,0.00,0.93,0.00,30.47,33.62,36.29,13.50,43.90,1020.53,1998.00,3009.05,2791.10,3196.00,599.73,583.23,31.32,0000 0000 0000 0000 000000
2018-05-19 11:00:31,0.00,0.93,0.00,30.44,33.62,36.29,13.51,43.90,1020.52,1998.00,3009.00,2791.04,3195.99,599.70,583.46,31.37,0000 0000 0000 0000 000000
2018-05-19 11:05:33,0.00,0.93,0.00,30.43,33.62,36.28,13.55,43.92,1020.53,1998.00,3009.00,2791.00,3195.95,600.35,584.15,31.42,0000 0000 0000 0000 000000
2018-05-19 11:10:34,0.00,0.93,0.00,30.42,33.61,36.29,13.59,44.00,1020.55,1998.00,3008.97,2791.00,3195.80,600.01,583.72,31.47,0000 0000 0000 0000 000000
2018-05-19 11:15:35,0.00,0.93,0.00,30.38,33.60,36.27,13.51,43.94,1020.53,1998.00,3008.86,2791.00,3195.53,599.78,583.60,31.52,0000 0000 0000 0000 000000
2018-05-19 11:20:36,0.01,0.93,0.00,30.37,33.60,36.26,13.55,43.93,1020.54,1998.01,3008.54,2791.00,3195.26,599.85,583.64,31.57,0000 0000 0000 0000 000000
2018-05-19 11:25:38,0.00,0.93,0.00,30.33,33.60,36.24,13.66,43.98,1020.53,1998.03,3008.20,2790.99,3195.14,600.51,584.29,31.62,0000 0000 0000 0000 000000
2018-05-19 11:30:39,0.00,0.94,0.00,30.32,33.58,36.26,13.61,43.96,1020.54,1998.02,3008.02,2790.98,3195.03,599.90,583.88,31.67,0000 0000 0000 0000 000000
2018-05-19 11:35:40,0.00,0.94,0.00,30.27,33.57,36.24,13.57,43.97,1020.53,1998.02,3008.00,2790.93,3195.01,599.87,583.85,31.73,0000 0000 0000 0000 000000
2018-05-19 11:40:42,0.00,0.94,0.00,30.24,33.56,36.21,13.57,43.85,1020.53,1998.03,3008.00,2790.91,3195.00,600.06,584.10,31.78,0000 0000 0000 0000 000000
2018-05-19 11:45:42,0.00,0.94,0.00,30.24,33.55,36.20,13.58,43.92,1020.53,1998.03,3008.00,2790.76,3195.00,600.09,583.95,31.83,0000 0000 0000 0000 000000
2018-05-19 11:50:43,0.01,0.94,0.00,30.20,33.54,36.19,13.55,43.97,1020.53,1998.04,3007.97,2790.53,3195.00,599.65,583.97,31.88,0000 0000 0000 0000 000000
2018-05-19 11:55:44,0.01,0.94,0.00,30.21,33.52,36.20,13.61,43.92,1020.55,1998.10,3007.92,2790.48,3195.00,600.12,584.28,31.93,0000 0000 0000 0000 000000
2018-05-19 12:00:46,0.01,0.94,0.00,30.21,33.51,36.20,13.61,43.97,1020.53,1998.24,3007.86,2790.46,3194.99,600.02,584.12,31.98,0000 0000 0000 0000 000000
2018-05-19 12:05:47,0.03,0.94,0.00,30.21,33.50,36.27,13.66,44.02,1020.54,1998.44,3007.50,2790.30,3194.98,599.75,583.97,32.03,0000 0000 0000 0000 000000
2018-05-19 12:10:48,0.02,0.94,0.00,30.18,33.49,36.27,13.58,43.93,1020.53,1998.64,3007.17,2790.22,3194.97,600.03,584.24,32.08,0000 0000 0000 0000 000000
2018-05-19 12:15:49,0.01,0.94,0.00,30.13,33.47,36.35,13.55,43.98,1020.52,1998.80,3007.09,2790.24,3194.98,600.01,584.21,32.13,0000 0000 0000 0000 000000
2018-05-19 12:20:50,0.01,0.94,0.00,30.11,33.46,36.35,13.59,43.97,1020.52,1998.90,3007.07,2790.23,3194.97,600.24,584.63,32.18,0000 0000 0000 0000 000000
2018-05-19 12:25:51,0.00,0.94,0.00,30.08,33.45,36.33,13.61,44.04,1020.52,1998.95,3007.01,2790.21,3194.96,600.12,584.38,32.23,0000 0000 0000 0000 000000
2018-05-19 12:30:52,0.00,0.94,0.00,30.05,33.42,36.30,13.57,43.98,1020.52,1998.95,3007.00,2790.16,3194.90,600.11,584.55,32.28,0000 0000 0000 0000 000000
2018-05-19 12:35:54,0.00,0.94,0.00,30.02,33.41,36.28,13.61,43.98,1020.52,1998.99,3007.00,2790.06,3194.79,599.77,584.38,32.33,0000 0000 0000 0000 000000
2018-05-19 12:40:55,-0.00,0.94,0.00,30.00,33.39,36.25,13.64,43.98,1020.52,1998.99,3007.00,2790.09,3194.91,599.99,584.42,32.38,0000 0000 0000 0000 000000
2018-05-19 12:45:56,0.00,0.94,0.00,29.95,33.37,36.23,13.58,44.05,1020.51,1998.99,3007.00,2790.19,3194.93,599.61,584.17,32.43,0000 0000 0000 0000 000000
2018-05-19 12:50:57,-0.00,0.94,0.00,29.91,33.35,36.20,13.61,44.01,1020.49,1999.00,3007.00,2790.30,3194.96,600.03,584.70,32.48,0000 0000 0000 0000 000000
2018-05-19 12:55:59,-0.00,0.94,0.00,29.89,33.33,36.17,13.55,43.94,1020.43,1999.02,3006.99,2790.29,3194.95,599.60,584.24,32.53,0000 0000 0000 0000 000000